Flag for Panama Weather past 2 weeks in Colón, Panama

Now
88 °F

Scattered clouds.


Feels Like: 102 °F
Forecast: 79 / 83 °F
Wind: 6 mph from West

Location: Marcos A. Gelabert

Current Time: Sep 2, 2015 at 12:30:51 PM

Latest Report: Sep 2, 2015 at 12:00 PM


Visibility: N/A

Pressure: 29.92 "Hg

Humidity: 75%

Dew point: 79 °F

Location of ColónLocation

Historic Weather in Colón — Graph

°F

Colón temperature yesterday

Maximum temperature yesterday: 88 °F (at 12:00 PM)
Minimum temperature yesterday: 79 °F (at 6:00 AM)
Average temperature yesterday: 82 °F

Past Weeks' High & Low Weather Summary

 TemperatureHumidityPressure
High91 °F (Aug 18, 1:00 PM)100% (Aug 23, 9:00 PM)29.95 "Hg (Aug 23, 9:00 PM)
Low75 °F (Aug 25, 12:00 PM)62% (Aug 28, 1:00 PM)29.74 "Hg (Aug 20, 4:00 PM)
Average82 °F84%29.83 "Hg
* Reported Aug 18 11:00 AM — Sep 2 11:00 AM, Colón, Weather by CustomWeather, © 2015

Note: Actual official high and low records may vary slightly from our data, if they occured in-between our weather recording intervals... More about our weather records

Advertising

Colón weather history for previous 24 hours

 ConditionsComfort  
Time TempWeatherWind HumidityBarometerVisibility
11:00 AM
Wed, Sep 2
88 °FScattered clouds.9 mph75%29.92 "HgN/A
10:00 AM88 °FScattered clouds.9 mph75%29.92 "HgN/A
9:00 AM84 °FScattered clouds.7 mph84%29.92 "HgN/A
8:00 AM82 °FScattered clouds.No wind84%29.89 "HgN/A
7:00 AM79 °FScattered clouds.5 mph94%29.89 "HgN/A
6:00 AM79 °FPassing clouds.3 mph94%29.86 "Hg6 mi
10:00 PM
Tue, Sep 1
79 °FPassing clouds.3 mph94%29.92 "HgN/A
9:00 PM81 °FPassing clouds.2 mph89%29.92 "HgN/A
8:00 PM81 °FPassing clouds.5 mph89%29.86 "HgN/A
7:00 PM81 °FPassing clouds.5 mph89%29.83 "HgN/A
6:00 PM79 °FBroken clouds.3 mph94%29.83 "HgN/A
5:00 PM79 °FBroken clouds.6 mph94%29.83 "HgN/A
4:00 PM81 °FBroken clouds.6 mph94%29.83 "HgN/A
3:00 PM81 °FScattered showers. Broken clouds.No wind89%29.86 "Hg5 mi
2:00 PM86 °FScattered showers. Broken clouds.7 mph79%29.83 "Hg4 mi
1:00 PM86 °FBroken clouds.7 mph79%29.89 "HgN/A
12:00 PM88 °FBroken clouds.5 mph70%29.92 "HgN/A
Weather by CustomWeather, © 2015

See weather overviewHow to use our weather pages